CES586 KLAX-ZSPD

Flight info

Callsign CES586
Flight time N/A
Altitude 28000
Route SUMMR2 MCKEY LIBBO BRINY BOARS AMAKR LINUZ 44N130W 50N140W/N0496F300 53N150W 55N160W 55N170W/N0499F320 54N180E 52N170E AKISU AGEDI ADGOR/N0495F340 R591 ADNAP Y886 DAIGO Y88 KCC Y28 HIZET/N0487F360 Y28 ISAKY Y592 ONIKU A593 LAMEN/K0902F360 A593 AKARA/K0902S1100 A593 DUMET
Aircraft B77W/H-SDE1E2E3FGHIJ2J3J4J5M1RWXY/LB1D1

Departure

Time 2026-04-26 00:58
Airport Los Angeles International Airport (KLAX)

Arrival

Time N/A
Airport Shanghai Pudong International Airport (ZSPD)
Time Latitude Longitude Altitude Speed Heading
2026-04-26 00:28 33.94020 -118.41076 97 ft 0 kts 83°
2026-04-26 00:43 33.94019 -118.41091 98 ft 2 kts 79°
2026-04-26 00:43 33.94015 -118.41110 96 ft 2 kts 76°
2026-04-26 00:43 33.94011 -118.41129 97 ft 2 kts 70°
2026-04-26 00:44 33.94004 -118.41147 97 ft 2 kts 59°
2026-04-26 00:44 33.93995 -118.41163 97 ft 2 kts 41°
2026-04-26 00:44 33.93981 -118.41174 97 ft 2 kts 16°
2026-04-26 00:44 33.93967 -118.41176 97 ft 1 kts 354°
2026-04-26 00:45 33.93965 -118.41176 97 ft 0 kts 353°
2026-04-26 00:49 33.93971 -118.41177 97 ft 2 kts 353°
2026-04-26 00:49 33.94005 -118.41182 98 ft 10 kts 353°
2026-04-26 00:49 33.94101 -118.41196 98 ft 15 kts 353°
2026-04-26 00:49 33.94200 -118.41211 98 ft 15 kts 353°
2026-04-26 00:50 33.94302 -118.41226 98 ft 15 kts 353°
2026-04-26 00:50 33.94402 -118.41240 100 ft 15 kts 353°
2026-04-26 00:50 33.94503 -118.41254 98 ft 15 kts 353°
2026-04-26 00:50 33.94592 -118.41269 98 ft 11 kts 353°
2026-04-26 00:51 33.94668 -118.41280 99 ft 11 kts 353°
2026-04-26 00:51 33.94744 -118.41288 99 ft 11 kts
2026-04-26 00:51 33.94797 -118.41218 102 ft 14 kts 78°
2026-04-26 00:51 33.94813 -118.41091 101 ft 16 kts 82°
2026-04-26 00:52 33.94826 -118.40961 102 ft 16 kts 83°
2026-04-26 00:52 33.94839 -118.40830 99 ft 16 kts 83°
2026-04-26 00:52 33.94852 -118.40700 99 ft 16 kts 82°
2026-04-26 00:52 33.94866 -118.40569 99 ft 16 kts 83°
2026-04-26 00:53 33.94880 -118.40439 100 ft 16 kts 83°
2026-04-26 00:53 33.94892 -118.40313 100 ft 12 kts 83°
2026-04-26 00:53 33.94896 -118.40274 99 ft 0 kts 83°
2026-04-26 00:54 33.94897 -118.40267 99 ft 3 kts 82°
2026-04-26 00:54 33.94898 -118.40258 101 ft 0 kts 82°
2026-04-26 00:55 33.94900 -118.40238 100 ft 3 kts 82°
2026-04-26 00:55 33.94922 -118.40193 99 ft 11 kts 41°
2026-04-26 00:55 33.94995 -118.40183 104 ft 11 kts 335°
2026-04-26 00:55 33.95009 -118.40262 104 ft 0 kts 265°
2026-04-26 00:57 33.95008 -118.40266 104 ft 5 kts 265°
2026-04-26 00:57 33.94976 -118.40588 104 ft 80 kts 263°
2026-04-26 00:57 33.94874 -118.41585 104 ft 158 kts 263°
2026-04-26 00:57 33.94708 -118.43071 570 ft 186 kts 261°
2026-04-26 00:58 33.94549 -118.44572 1693 ft 181 kts 263°
2026-04-26 00:58 33.94413 -118.46019 2463 ft 166 kts 263°
2026-04-26 00:58 33.94321 -118.47410 2760 ft 175 kts 267°
2026-04-26 00:58 33.94277 -118.48927 2949 ft 185 kts 267°
2026-04-26 00:59 33.94237 -118.50499 3211 ft 191 kts 268°
2026-04-26 00:59 33.94151 -118.52090 3583 ft 191 kts 264°
2026-04-26 00:59 33.94020 -118.53693 3896 ft 194 kts 264°
2026-04-26 00:59 33.93887 -118.55317 4229 ft 197 kts 264°
2026-04-26 01:00 33.93749 -118.57025 4383 ft 211 kts 264°
2026-04-26 01:00 33.93606 -118.58823 4654 ft 220 kts 264°
2026-04-26 01:00 33.93459 -118.60685 4981 ft 227 kts 264°
2026-04-26 01:00 33.93304 -118.62638 5265 ft 242 kts 264°
2026-04-26 01:01 33.93141 -118.64709 5607 ft 252 kts 264°
2026-04-26 01:01 33.92977 -118.66838 6130 ft 257 kts 264°
2026-04-26 01:01 33.92812 -118.68949 6800 ft 256 kts 264°
2026-04-26 01:01 33.92646 -118.71093 7376 ft 259 kts 264°
2026-04-26 01:02 33.92477 -118.73267 7958 ft 261 kts 264°
2026-04-26 01:02 33.92307 -118.75457 8533 ft 264 kts 264°
2026-04-26 01:02 33.92135 -118.77656 9149 ft 265 kts 263°
2026-04-26 01:02 33.91961 -118.79874 9762 ft 266 kts 263°
2026-04-26 01:03 33.91786 -118.82101 10288 ft 268 kts 263°
2026-04-26 01:03 33.91658 -118.84346 10866 ft 269 kts 268°
2026-04-26 01:03 33.91716 -118.86607 11438 ft 272 kts 270°
2026-04-26 01:03 33.91817 -118.88940 11638 ft 288 kts 270°
2026-04-26 01:04 33.91918 -118.91425 11800 ft 305 kts 270°
2026-04-26 01:04 33.92009 -118.94057 11955 ft 324 kts 270°
2026-04-26 01:04 33.92094 -118.96803 12111 ft 342 kts 270°
2026-04-26 01:04 33.92187 -118.99713 12511 ft 350 kts 272°
2026-04-26 01:05 33.92730 -119.02619 12902 ft 365 kts 291°
2026-04-26 01:05 33.94021 -119.05269 13501 ft 370 kts 299°
2026-04-26 01:05 33.95434 -119.07899 14101 ft 374 kts 298°
2026-04-26 01:05 33.96827 -119.10557 14673 ft 377 kts 297°
2026-04-26 01:06 33.98222 -119.13250 15283 ft 381 kts 297°
2026-04-26 01:06 33.99627 -119.15975 15886 ft 384 kts 297°
2026-04-26 01:06 34.01131 -119.18652 16366 ft 392 kts 306°
2026-04-26 01:06 34.03249 -119.20813 16743 ft 405 kts 321°
2026-04-26 01:07 34.05615 -119.22721 17054 ft 411 kts 320°
2026-04-26 01:07 34.07981 -119.24684 17498 ft 413 kts 320°
2026-04-26 01:07 34.10328 -119.26667 18123 ft 411 kts 319°
2026-04-26 01:07 34.12665 -119.28662 18587 ft 413 kts 319°
2026-04-26 01:08 34.14994 -119.30665 18918 ft 418 kts 319°
2026-04-26 01:08 34.17369 -119.32713 19289 ft 421 kts 319°
2026-04-26 01:08 34.19765 -119.34780 19694 ft 423 kts 319°
2026-04-26 01:08 34.22169 -119.36856 20097 ft 426 kts 319°
2026-04-26 01:09 34.24591 -119.38947 20430 ft 430 kts 319°
2026-04-26 01:09 34.27032 -119.41057 20795 ft 432 kts 319°
2026-04-26 01:09 34.29485 -119.43178 21142 ft 435 kts 319°
2026-04-26 01:09 34.31949 -119.45310 21504 ft 437 kts 319°
2026-04-26 01:10 34.34432 -119.47459 21852 ft 439 kts 319°
2026-04-26 01:10 34.36927 -119.49621 22192 ft 442 kts 319°
2026-04-26 01:10 34.39433 -119.51795 22548 ft 445 kts 319°
2026-04-26 01:10 34.41891 -119.54077 22792 ft 443 kts 311°
2026-04-26 01:11 34.43940 -119.56744 23305 ft 435 kts 305°
2026-04-26 01:11 34.45893 -119.59600 23691 ft 436 kts 304°
2026-04-26 01:11 34.47788 -119.62427 23918 ft 439 kts 304°
2026-04-26 01:11 34.49728 -119.65307 24162 ft 443 kts 304°
2026-04-26 01:12 34.51721 -119.68225 24443 ft 444 kts 305°
2026-04-26 01:12 34.53712 -119.71042 24729 ft 446 kts 305°
2026-04-26 01:12 34.55726 -119.73912 25023 ft 447 kts 305°
2026-04-26 01:12 34.57742 -119.76803 25278 ft 449 kts 305°
2026-04-26 01:13 34.59761 -119.79702 25532 ft 451 kts 305°
2026-04-26 01:13 34.61792 -119.82616 25798 ft 453 kts 304°
2026-04-26 01:13 34.63826 -119.85530 26213 ft 450 kts 305°
2026-04-26 01:13 34.65850 -119.88425 26512 ft 451 kts 305°
2026-04-26 01:14 34.67897 -119.91353 26690 ft 455 kts 305°
2026-04-26 01:14 34.69949 -119.94292 26884 ft 457 kts 305°
2026-04-26 01:14 34.72012 -119.97247 27132 ft 459 kts 305°
2026-04-26 01:14 34.74091 -120.00229 27269 ft 463 kts 305°
2026-04-26 01:15 34.76180 -120.03225 27435 ft 466 kts 305°
2026-04-26 01:15 34.78280 -120.06238 27688 ft 466 kts 305°
2026-04-26 01:15 34.80353 -120.09215 27875 ft 468 kts 305°
2026-04-26 01:15 34.82459 -120.12245 27940 ft 469 kts 305°
2026-04-26 01:16 34.84564 -120.15272 27971 ft 465 kts 305°
2026-04-26 01:16 34.86647 -120.18270 27964 ft 463 kts 305°
2026-04-26 01:16 34.88728 -120.21269 27985 ft 462 kts 306°
2026-04-26 01:16 34.90799 -120.24261 27976 ft 463 kts 306°
2026-04-26 01:17 34.92881 -120.27270 27984 ft 464 kts 306°
2026-04-26 01:17 34.94970 -120.30289 27983 ft 466 kts 306°
2026-04-26 01:17 34.97062 -120.33316 27967 ft 467 kts 306°
2026-04-26 01:17 34.99155 -120.36348 27972 ft 467 kts 306°
2026-04-26 01:18 35.01252 -120.39389 27976 ft 468 kts 306°
2026-04-26 01:18 35.03344 -120.42424 27988 ft 468 kts 306°
2026-04-26 01:18 35.05434 -120.45458 27984 ft 468 kts 306°
2026-04-26 01:18 35.07508 -120.48472 27978 ft 468 kts 306°
2026-04-26 01:19 35.09602 -120.51515 27973 ft 468 kts 306°
2026-04-26 01:19 35.11693 -120.54560 27977 ft 468 kts 306°
2026-04-26 01:19 35.13785 -120.57609 27975 ft 468 kts 306°
2026-04-26 01:19 35.15878 -120.60662 27957 ft 468 kts 306°
2026-04-26 01:20 35.17966 -120.63711 27961 ft 467 kts 306°
2026-04-26 01:20 35.20050 -120.66754 27969 ft 467 kts 306°
2026-04-26 01:20 35.22136 -120.69804 27965 ft 467 kts 306°
2026-04-26 01:20 35.24219 -120.72851 27969 ft 468 kts 306°
2026-04-26 01:21 35.26304 -120.75907 27977 ft 469 kts 306°
2026-04-26 01:21 35.28399 -120.78981 27970 ft 470 kts 306°
2026-04-26 01:21 35.30499 -120.82063 27962 ft 471 kts 306°
2026-04-26 01:21 35.32598 -120.85145 27968 ft 471 kts 306°
2026-04-26 01:22 35.34689 -120.88219 27967 ft 471 kts 306°
2026-04-26 01:22 35.36790 -120.91310 27966 ft 473 kts 306°
2026-04-26 01:22 35.38878 -120.94388 27984 ft 479 kts 306°
2026-04-26 01:22 35.41023 -120.97552 28114 ft 484 kts 307°
2026-04-26 01:23 35.43175 -121.00726 28390 ft 485 kts 307°
2026-04-26 01:23 35.45332 -121.03908 28760 ft 484 kts 307°
2026-04-26 01:23 35.47484 -121.07088 29180 ft 483 kts 307°
2026-04-26 01:23 35.49630 -121.10246 29567 ft 482 kts 307°
2026-04-26 01:24 35.51798 -121.13379 29877 ft 483 kts 308°
2026-04-26 01:24 35.53993 -121.16526 29922 ft 486 kts 308°
2026-04-26 01:24 35.58400 -121.22831 29924 ft 485 kts 308°
2026-04-26 01:25 35.62758 -121.29098 29941 ft 481 kts 308°
2026-04-26 01:25 35.67082 -121.35346 29963 ft 479 kts 308°
2026-04-26 01:26 35.71401 -121.41601 29970 ft 481 kts 308°
2026-04-26 01:26 35.75751 -121.47912 29964 ft 484 kts 309°
2026-04-26 01:27 35.80098 -121.54229 29952 ft 487 kts 309°
2026-04-26 01:27 35.84491 -121.60622 29957 ft 488 kts 309°
2026-04-26 01:28 35.88873 -121.67013 29950 ft 487 kts 309°
2026-04-26 01:28 35.93244 -121.73401 29954 ft 486 kts 309°
2026-04-26 01:29 35.97619 -121.79703 29941 ft 486 kts 315°
2026-04-26 01:29 36.02830 -121.84978 29968 ft 485 kts 328°
2026-04-26 01:30 36.08778 -121.88928 29973 ft 485 kts 334°
2026-04-26 01:30 36.14844 -121.92628 29968 ft 486 kts 334°
2026-04-26 01:31 36.20912 -121.96378 29964 ft 487 kts 334°
2026-04-26 01:31 36.26920 -122.00138 29959 ft 487 kts 334°
2026-04-26 01:32 36.32959 -122.03938 29958 ft 486 kts 334°
2026-04-26 01:32 36.38984 -122.07735 29961 ft 485 kts 334°
2026-04-26 01:33 36.44972 -122.11514 29952 ft 480 kts 334°
2026-04-26 01:33 36.50907 -122.15263 29968 ft 477 kts 334°
2026-04-26 01:34 36.56812 -122.19000 29951 ft 476 kts 334°
2026-04-26 01:34 36.62708 -122.22738 29962 ft 475 kts 334°
2026-04-26 01:35 36.68599 -122.26480 29951 ft 476 kts 334°
2026-04-26 01:35 36.74522 -122.30248 29968 ft 479 kts 334°
2026-04-26 01:36 36.80441 -122.34021 29956 ft 481 kts 334°
2026-04-26 01:37 36.89414 -122.39754 29947 ft 483 kts 334°
2026-04-26 01:37 36.95406 -122.43590 29939 ft 484 kts 334°
2026-04-26 01:38 37.01400 -122.47434 29938 ft 483 kts 334°
2026-04-26 01:38 37.07336 -122.51249 29937 ft 482 kts 334°
2026-04-26 01:39 37.13300 -122.55088 29925 ft 481 kts 334°
2026-04-26 01:39 37.19242 -122.58919 29925 ft 480 kts 334°
2026-04-26 01:40 37.25198 -122.62768 29928 ft 480 kts 334°
2026-04-26 01:40 37.31152 -122.66573 29931 ft 480 kts 336°
2026-04-26 01:41 37.37329 -122.69762 29921 ft 479 kts 339°
2026-04-26 01:41 37.43532 -122.72754 29928 ft 479 kts 340°
2026-04-26 01:42 37.49761 -122.75810 29928 ft 479 kts 339°
2026-04-26 01:42 37.55959 -122.78905 29924 ft 479 kts 338°
2026-04-26 01:43 37.61107 -122.81490 29912 ft 479 kts 338°
2026-04-26 01:43 37.67296 -122.84604 29917 ft 478 kts 339°
2026-04-26 01:44 37.73484 -122.87721 29910 ft 479 kts 338°
2026-04-26 01:44 37.79692 -122.90851 29903 ft 482 kts 338°
2026-04-26 01:45 37.85937 -122.94005 29916 ft 485 kts 338°
2026-04-26 01:45 37.92183 -122.97166 29915 ft 487 kts 338°
2026-04-26 01:46 37.98478 -123.00359 29906 ft 488 kts 338°
2026-04-26 01:46 38.04780 -123.03561 29893 ft 487 kts 338°
2026-04-26 01:47 38.11090 -123.06773 29905 ft 488 kts 338°
2026-04-26 01:47 38.17411 -123.09997 29904 ft 489 kts 338°
2026-04-26 01:48 38.23656 -123.13419 29889 ft 489 kts 331°
2026-04-26 01:48 38.29409 -123.17909 29904 ft 488 kts 327°
2026-04-26 01:49 38.35123 -123.22562 29887 ft 487 kts 326°
2026-04-26 01:49 38.40837 -123.27173 29896 ft 485 kts 327°
2026-04-26 01:50 38.46542 -123.31747 29882 ft 483 kts 327°
2026-04-26 01:50 38.52222 -123.36302 29885 ft 481 kts 327°
2026-04-26 01:51 38.57874 -123.40846 29888 ft 480 kts 327°
2026-04-26 01:51 38.63488 -123.45367 29888 ft 479 kts 327°
2026-04-26 01:52 38.69135 -123.49926 29888 ft 480 kts 327°
2026-04-26 01:52 38.74789 -123.54500 29880 ft 480 kts 327°
2026-04-26 01:53 38.80443 -123.59081 29879 ft 480 kts 327°
2026-04-26 01:53 38.86095 -123.63671 29884 ft 481 kts 327°
2026-04-26 01:54 38.91750 -123.68272 29886 ft 481 kts 327°
2026-04-26 01:54 38.97408 -123.72882 29878 ft 481 kts 327°
2026-04-26 01:55 39.02880 -123.77723 29889 ft 479 kts 322°
2026-04-26 01:55 39.08147 -123.82950 29893 ft 477 kts 322°
2026-04-26 01:56 39.13390 -123.88181 29902 ft 476 kts 322°
2026-04-26 01:56 39.18619 -123.93377 29896 ft 474 kts 322°
2026-04-26 01:57 39.23839 -123.98556 29894 ft 472 kts 323°
2026-04-26 01:57 39.29048 -124.03729 29909 ft 472 kts 323°
2026-04-26 01:58 39.34248 -124.08903 29892 ft 471 kts 323°
2026-04-26 01:58 39.39409 -124.14049 29891 ft 471 kts 323°
2026-04-26 01:59 39.44591 -124.19227 29889 ft 471 kts 323°
2026-04-26 01:59 39.49772 -124.24416 29887 ft 471 kts 323°
2026-04-26 02:00 39.54954 -124.29614 29892 ft 471 kts 323°
2026-04-26 02:00 39.60129 -124.34814 29896 ft 471 kts 323°
2026-04-26 02:01 39.65301 -124.40023 29891 ft 470 kts 323°
2026-04-26 02:01 39.70473 -124.45241 29891 ft 470 kts 323°
2026-04-26 02:02 39.75621 -124.50446 29892 ft 468 kts 323°
2026-04-26 02:02 39.80757 -124.55649 29889 ft 467 kts 323°
2026-04-26 02:03 39.85842 -124.60810 29900 ft 465 kts 323°
2026-04-26 02:03 39.90931 -124.65985 29899 ft 463 kts 322°
2026-04-26 02:04 39.95997 -124.71148 29898 ft 461 kts 322°
2026-04-26 02:04 40.01045 -124.76299 29899 ft 460 kts 322°
2026-04-26 02:05 40.06078 -124.81446 29895 ft 459 kts 322°
2026-04-26 02:05 40.11104 -124.86596 29903 ft 459 kts 322°
2026-04-26 02:06 40.16089 -124.91714 29906 ft 459 kts 322°
2026-04-26 02:06 40.21105 -124.96875 29901 ft 458 kts 322°
2026-04-26 02:07 40.26107 -125.02030 29909 ft 457 kts 322°
2026-04-26 02:07 40.31098 -125.07185 29905 ft 456 kts 322°
2026-04-26 02:08 40.36081 -125.12341 29907 ft 455 kts 322°
2026-04-26 02:08 40.41046 -125.17487 29911 ft 455 kts 322°
2026-04-26 02:09 40.45997 -125.22630 29914 ft 454 kts 322°
2026-04-26 02:09 40.50960 -125.27795 29908 ft 453 kts 322°
2026-04-26 02:10 40.55873 -125.32918 29911 ft 453 kts 322°
2026-04-26 02:10 40.60810 -125.38077 29913 ft 452 kts 322°
2026-04-26 02:11 40.65706 -125.43201 29914 ft 452 kts 322°
2026-04-26 02:11 40.70625 -125.48361 29914 ft 452 kts 322°
2026-04-26 02:12 40.75539 -125.53524 29910 ft 451 kts 322°
2026-04-26 02:12 40.80444 -125.58689 29912 ft 451 kts 322°
2026-04-26 02:13 40.85335 -125.63849 29919 ft 450 kts 322°
2026-04-26 02:13 40.90240 -125.69033 29917 ft 451 kts 322°
2026-04-26 02:14 40.95138 -125.74224 29926 ft 450 kts 321°
2026-04-26 02:14 41.00001 -125.79383 29911 ft 450 kts 321°
2026-04-26 02:15 41.04883 -125.84572 29922 ft 449 kts 321°
2026-04-26 02:15 41.09753 -125.89760 29916 ft 448 kts 321°
2026-04-26 02:16 41.14612 -125.94946 29918 ft 448 kts 321°
2026-04-26 02:16 41.19426 -126.00095 29923 ft 447 kts 321°
2026-04-26 02:17 41.24266 -126.05282 29915 ft 447 kts 321°
2026-04-26 02:17 41.29105 -126.10478 29919 ft 447 kts 321°
2026-04-26 02:18 41.33935 -126.15674 29926 ft 446 kts 321°
2026-04-26 02:18 41.38774 -126.20890 29926 ft 446 kts 321°
2026-04-26 02:19 41.43601 -126.26103 29931 ft 446 kts 321°
2026-04-26 02:19 41.48399 -126.31296 29931 ft 447 kts 322°
2026-04-26 02:20 41.53228 -126.36533 29932 ft 447 kts 322°
2026-04-26 02:20 41.58046 -126.41769 29930 ft 447 kts 322°
2026-04-26 02:21 41.62867 -126.47017 29930 ft 446 kts 322°
2026-04-26 02:21 41.67496 -126.52545 29937 ft 447 kts 315°
2026-04-26 02:22 41.71733 -126.58582 29939 ft 448 kts 315°
2026-04-26 02:22 41.76006 -126.64655 29939 ft 448 kts 315°
2026-04-26 02:23 41.80284 -126.70720 29943 ft 448 kts 315°
2026-04-26 02:23 41.84562 -126.76787 29939 ft 448 kts 315°
2026-04-26 02:24 41.88849 -126.82878 29932 ft 448 kts 315°
2026-04-26 02:24 41.93132 -126.88975 29943 ft 448 kts 315°
2026-04-26 02:25 41.97383 -126.95040 29951 ft 449 kts 315°
2026-04-26 02:25 42.01665 -127.01162 29940 ft 449 kts 315°
2026-04-26 02:26 42.05945 -127.07294 29949 ft 449 kts 315°
2026-04-26 02:26 42.10227 -127.13444 29953 ft 450 kts 315°
2026-04-26 02:27 42.14504 -127.19598 29951 ft 450 kts 315°
2026-04-26 02:27 42.18758 -127.25731 29956 ft 451 kts 315°
2026-04-26 02:28 42.23047 -127.31929 29956 ft 451 kts 315°
2026-04-26 02:28 42.27332 -127.38135 29956 ft 452 kts 315°
2026-04-26 02:29 42.31613 -127.44347 29959 ft 452 kts 315°
2026-04-26 02:29 42.35175 -127.49528 29959 ft 452 kts 315°
2026-04-26 02:30 42.40174 -127.56813 29959 ft 452 kts 315°
2026-04-26 02:30 42.43733 -127.62010 29948 ft 452 kts 315°
2026-04-26 02:31 42.47969 -127.68209 29965 ft 452 kts 315°
2026-04-26 02:31 42.52238 -127.74469 29964 ft 452 kts 315°
2026-04-26 02:32 42.56510 -127.80745 29964 ft 452 kts 315°
2026-04-26 02:32 42.60779 -127.87034 29971 ft 453 kts 315°
2026-04-26 02:33 42.65051 -127.93339 29971 ft 454 kts 315°
2026-04-26 02:33 42.69336 -127.99678 29971 ft 455 kts 315°
2026-04-26 02:34 42.73593 -128.05987 29964 ft 456 kts 315°
2026-04-26 02:34 42.77892 -128.12375 29976 ft 456 kts 315°
2026-04-26 02:35 42.82185 -128.18768 29972 ft 457 kts 315°
2026-04-26 02:35 42.86473 -128.25167 29965 ft 457 kts 315°
2026-04-26 02:36 42.90736 -128.31544 29982 ft 458 kts 315°
2026-04-26 02:36 42.95029 -128.37978 29983 ft 458 kts 315°
2026-04-26 02:37 42.99314 -128.44416 29985 ft 458 kts 315°
2026-04-26 02:37 43.03600 -128.50869 29977 ft 459 kts 315°
2026-04-26 02:38 43.07896 -128.57352 29988 ft 459 kts 315°
2026-04-26 02:38 43.12190 -128.63846 29990 ft 460 kts 315°
2026-04-26 02:39 43.16477 -128.70346 29984 ft 460 kts 315°
2026-04-26 02:39 43.20746 -128.76831 29997 ft 461 kts 315°
2026-04-26 02:40 43.25041 -128.83372 29994 ft 461 kts 315°
2026-04-26 02:40 43.29338 -128.89930 29982 ft 462 kts 315°
2026-04-26 02:41 43.33629 -128.96494 29997 ft 461 kts 315°
2026-04-26 02:41 43.37913 -129.03063 29993 ft 461 kts 315°
2026-04-26 02:42 43.42174 -129.09612 29998 ft 461 kts 315°
2026-04-26 02:42 43.46445 -129.16190 29995 ft 461 kts 315°
2026-04-26 02:43 43.52854 -129.26091 30001 ft 461 kts 315°
2026-04-26 02:43 43.57092 -129.32657 29988 ft 461 kts 315°
2026-04-26 02:44 43.61354 -129.39275 30002 ft 462 kts 315°
2026-04-26 02:44 43.65623 -129.45918 30008 ft 463 kts 315°
2026-04-26 02:45 43.69899 -129.52589 30007 ft 463 kts 315°
2026-04-26 02:45 43.74172 -129.59270 30017 ft 464 kts 315°
2026-04-26 02:46 43.78422 -129.65933 30015 ft 464 kts 315°
2026-04-26 02:46 43.82679 -129.72620 30015 ft 464 kts 314°
2026-04-26 02:47 43.86966 -129.79371 30010 ft 464 kts 314°
2026-04-26 02:47 43.91198 -129.86051 30021 ft 464 kts 314°
2026-04-26 02:48 43.95448 -129.92778 30031 ft 464 kts 314°
2026-04-26 02:48 43.99712 -129.99530 30035 ft 464 kts 315°
2026-04-26 02:49 44.04189 -130.05959 30034 ft 462 kts 318°
2026-04-26 02:49 44.08753 -130.12284 30033 ft 463 kts 318°
2026-04-26 02:50 44.13311 -130.18622 30034 ft 464 kts 318°
2026-04-26 02:50 44.17842 -130.24972 30031 ft 465 kts 317°
2026-04-26 02:51 44.22396 -130.31384 30044 ft 466 kts 317°
2026-04-26 02:51 44.26966 -130.37838 30041 ft 467 kts 317°
2026-04-26 02:52 44.31530 -130.44297 30032 ft 468 kts 317°
2026-04-26 02:52 44.36104 -130.50784 30048 ft 468 kts 317°
2026-04-26 02:53 44.40672 -130.57280 30055 ft 469 kts 317°
2026-04-26 02:53 44.45246 -130.63797 30054 ft 469 kts 317°
2026-04-26 02:54 44.49800 -130.70303 30055 ft 470 kts 317°
2026-04-26 02:54 44.54386 -130.76868 30066 ft 471 kts 317°
2026-04-26 02:55 44.58979 -130.83460 30070 ft 472 kts 317°
2026-04-26 02:55 44.63569 -130.90065 30062 ft 473 kts 317°
2026-04-26 02:56 44.68139 -130.96656 30073 ft 474 kts 317°
2026-04-26 02:56 44.72752 -131.03324 30074 ft 475 kts 317°
2026-04-26 02:57 44.77356 -131.09997 30071 ft 475 kts 317°
2026-04-26 02:57 44.81956 -131.16679 30081 ft 475 kts 317°
2026-04-26 02:58 44.86549 -131.23370 30080 ft 475 kts 317°
2026-04-26 02:58 44.91141 -131.30070 30090 ft 475 kts 317°
2026-04-26 02:59 44.93439 -131.33434 30212 ft 475 kts 317°
2026-04-26 02:59 44.95697 -131.36742 30581 ft 473 kts 316°
2026-04-26 02:59 44.97981 -131.40091 30894 ft 473 kts 317°
2026-04-26 02:59 45.00259 -131.43438 31230 ft 471 kts 316°
2026-04-26 03:00 45.02539 -131.46788 31462 ft 472 kts 317°
2026-04-26 03:00 45.04820 -131.50144 31758 ft 471 kts 316°
2026-04-26 03:00 45.07086 -131.53478 31993 ft 472 kts 316°
2026-04-26 03:00 45.09369 -131.56840 32046 ft 474 kts 316°
2026-04-26 03:01 45.13943 -131.63599 32102 ft 476 kts 316°
2026-04-26 03:01 45.18519 -131.70379 32103 ft 474 kts 317°
2026-04-26 03:02 45.23040 -131.77101 32098 ft 473 kts 316°
2026-04-26 03:02 45.27578 -131.83860 32105 ft 473 kts 316°
2026-04-26 03:03 45.32116 -131.90631 32107 ft 473 kts 316°
2026-04-26 03:03 45.36652 -131.97417 32108 ft 473 kts 316°
2026-04-26 03:04 45.41189 -132.04231 32103 ft 475 kts 315°
2026-04-26 03:04 45.45706 -132.11027 32119 ft 476 kts 316°
2026-04-26 03:05 45.50266 -132.17894 32123 ft 478 kts 316°
2026-04-26 03:05 45.54836 -132.24798 32117 ft 479 kts 315°
2026-04-26 03:06 45.59419 -132.31748 32132 ft 481 kts 316°
2026-04-26 03:06 45.64022 -132.38730 32137 ft 482 kts 316°
2026-04-26 03:07 45.68620 -132.45731 32138 ft 483 kts 316°
2026-04-26 03:07 45.73213 -132.52754 32135 ft 484 kts 315°
2026-04-26 03:08 45.77796 -132.59770 32147 ft 485 kts 315°
2026-04-26 03:08 45.82420 -132.66867 32155 ft 486 kts 314°
2026-04-26 03:09 45.87039 -132.73969 32140 ft 487 kts 314°
2026-04-26 03:09 45.91662 -132.81108 32146 ft 488 kts 314°
2026-04-26 03:10 45.96281 -132.88263 32152 ft 489 kts 314°
2026-04-26 03:10 46.00910 -132.95439 32154 ft 489 kts 314°
2026-04-26 03:11 46.05506 -133.02583 32155 ft 490 kts 314°
2026-04-26 03:11 46.10139 -133.09796 32168 ft 491 kts 314°
2026-04-26 03:12 46.14772 -133.17045 32171 ft 491 kts 314°
2026-04-26 03:12 46.19397 -133.24296 32167 ft 492 kts 313°
2026-04-26 03:13 46.24032 -133.31587 32171 ft 492 kts 313°
2026-04-26 03:13 46.28670 -133.38895 32187 ft 493 kts 313°
2026-04-26 03:14 46.33273 -133.46165 32189 ft 493 kts 313°
2026-04-26 03:14 46.37915 -133.53524 32191 ft 494 kts 313°
2026-04-26 03:15 46.42545 -133.60879 32195 ft 494 kts 313°
2026-04-26 03:15 46.47184 -133.68269 32195 ft 495 kts 313°
2026-04-26 03:16 46.51815 -133.75668 32188 ft 495 kts 312°
2026-04-26 03:16 46.56403 -133.83020 32186 ft 494 kts 312°
2026-04-26 03:17 46.61009 -133.90418 32198 ft 494 kts 312°
2026-04-26 03:17 46.65625 -133.97853 32207 ft 495 kts 312°
2026-04-26 03:18 46.70226 -134.05285 32217 ft 494 kts 312°
2026-04-26 03:18 46.74058 -134.11490 32217 ft 494 kts 312°
2026-04-26 03:19 46.78663 -134.18965 32221 ft 494 kts 311°
2026-04-26 03:19 46.83251 -134.26435 32229 ft 493 kts 311°
2026-04-26 03:20 46.87830 -134.33908 32232 ft 493 kts 311°
2026-04-26 03:20 46.92378 -134.41353 32220 ft 493 kts 311°
2026-04-26 03:21 46.96942 -134.48846 32229 ft 493 kts 311°
2026-04-26 03:21 47.01509 -134.56361 32226 ft 493 kts 311°
2026-04-26 03:22 47.06069 -134.63886 32234 ft 494 kts 311°
2026-04-26 03:22 47.10630 -134.71441 32237 ft 495 kts 311°
2026-04-26 03:23 47.15191 -134.79012 32251 ft 494 kts 311°
2026-04-26 03:23 47.19713 -134.86541 32246 ft 493 kts 310°
2026-04-26 03:24 47.24274 -134.94160 32252 ft 497 kts 311°
2026-04-26 03:24 47.28842 -135.01801 32259 ft 495 kts 310°
2026-04-26 03:25 47.33395 -135.09433 32257 ft 495 kts 310°
2026-04-26 03:25 47.37933 -135.17073 32253 ft 495 kts 310°
2026-04-26 03:26 47.42447 -135.24698 32254 ft 496 kts 310°
2026-04-26 03:26 47.46982 -135.32377 32260 ft 495 kts 310°
2026-04-26 03:27 47.51485 -135.40019 32262 ft 494 kts 310°
2026-04-26 03:27 47.55989 -135.47691 32267 ft 493 kts 310°
2026-04-26 03:28 47.60484 -135.55369 32279 ft 493 kts 310°
2026-04-26 03:28 47.64970 -135.63054 32283 ft 492 kts 309°
2026-04-26 03:29 47.69449 -135.70743 32288 ft 493 kts 309°
2026-04-26 03:29 47.73937 -135.78468 32283 ft 493 kts 309°
2026-04-26 03:30 47.78413 -135.86200 32288 ft 493 kts 309°
2026-04-26 03:30 47.82887 -135.93951 32287 ft 493 kts 309°
2026-04-26 03:31 47.87323 -136.01668 32290 ft 493 kts 309°
2026-04-26 03:31 47.91780 -136.09432 32300 ft 492 kts 309°
2026-04-26 03:32 47.96233 -136.17205 32286 ft 492 kts 308°
2026-04-26 03:32 48.00671 -136.24981 32296 ft 491 kts 308°
2026-04-26 03:33 48.05104 -136.32772 32298 ft 491 kts 308°
2026-04-26 03:33 48.09504 -136.40531 32304 ft 492 kts 308°
2026-04-26 03:34 48.13931 -136.48356 32303 ft 493 kts 308°
2026-04-26 03:34 48.18368 -136.56222 32308 ft 493 kts 308°
2026-04-26 03:35 48.22794 -136.64092 32326 ft 493 kts 307°
2026-04-26 03:35 48.27191 -136.71935 32314 ft 494 kts 307°
2026-04-26 03:36 48.31614 -136.79847 32315 ft 494 kts 307°
2026-04-26 03:36 48.36038 -136.87782 32316 ft 494 kts 307°
2026-04-26 03:37 48.40450 -136.95721 32316 ft 495 kts 307°
2026-04-26 03:37 48.44857 -137.03674 32318 ft 494 kts 307°
2026-04-26 03:38 48.49235 -137.11599 32317 ft 494 kts 307°
2026-04-26 03:38 48.53629 -137.19576 32318 ft 494 kts 307°
2026-04-26 03:39 48.58021 -137.27572 32325 ft 494 kts 307°
2026-04-26 03:39 48.62411 -137.35590 32320 ft 494 kts 307°
2026-04-26 03:40 48.66788 -137.43609 32321 ft 494 kts 307°
2026-04-26 03:40 48.71133 -137.51593 32333 ft 494 kts 307°
2026-04-26 03:41 48.75503 -137.59645 32326 ft 494 kts 307°
2026-04-26 03:41 48.79856 -137.67692 32326 ft 493 kts 307°
2026-04-26 03:42 48.84204 -137.75753 32323 ft 492 kts 307°
2026-04-26 03:42 48.88511 -137.83765 32344 ft 491 kts 307°
2026-04-26 03:43 48.92827 -137.91814 32328 ft 490 kts 307°
2026-04-26 03:43 48.97130 -137.99861 32324 ft 489 kts 307°
2026-04-26 03:44 49.01415 -138.07893 32335 ft 493 kts 306°
2026-04-26 03:44 49.05731 -138.16032 32339 ft 493 kts 307°
2026-04-26 03:45 49.10056 -138.24200 32330 ft 492 kts 307°
2026-04-26 03:45 49.14353 -138.32335 32331 ft 491 kts 306°
2026-04-26 03:46 49.18598 -138.40397 32341 ft 489 kts 306°
2026-04-26 03:47 49.24974 -138.52558 32330 ft 487 kts 306°
2026-04-26 03:47 49.29201 -138.60650 32325 ft 486 kts 306°
2026-04-26 03:48 49.33415 -138.68741 32333 ft 485 kts 306°
2026-04-26 03:48 49.37600 -138.76802 32341 ft 486 kts 306°
2026-04-26 03:49 49.41807 -138.84932 32327 ft 487 kts 306°
2026-04-26 03:49 49.46026 -138.93107 32337 ft 488 kts 306°
2026-04-26 03:50 49.50247 -139.01312 32334 ft 489 kts 306°
2026-04-26 03:50 49.54473 -139.09550 32331 ft 491 kts 305°
2026-04-26 03:51 49.58706 -139.17833 32339 ft 492 kts 305°
2026-04-26 03:51 49.62916 -139.26093 32333 ft 492 kts 305°
2026-04-26 03:52 49.67142 -139.34410 32353 ft 493 kts 304°
2026-04-26 03:52 49.71374 -139.42765 32336 ft 493 kts 304°
2026-04-26 03:53 49.75596 -139.51128 32333 ft 493 kts 304°
2026-04-26 03:53 49.79812 -139.59507 32332 ft 493 kts 304°
2026-04-26 03:54 49.84016 -139.67887 32349 ft 492 kts 304°
2026-04-26 03:54 49.88211 -139.76275 32335 ft 492 kts 304°
2026-04-26 03:55 49.92400 -139.84680 32331 ft 492 kts 304°
2026-04-26 03:55 49.96552 -139.93035 32331 ft 491 kts 304°
2026-04-26 03:56 50.00625 -140.01548 32327 ft 489 kts 298°
2026-04-26 03:56 50.03993 -140.10691 32330 ft 486 kts 295°
2026-04-26 03:57 50.07270 -140.19894 32329 ft 486 kts 295°
2026-04-26 03:57 50.10564 -140.29098 32329 ft 487 kts 295°
2026-04-26 03:58 50.13875 -140.38309 32337 ft 487 kts 295°
2026-04-26 03:58 50.17165 -140.47467 32326 ft 486 kts 295°
2026-04-26 03:59 50.20466 -140.56690 32328 ft 486 kts 295°
2026-04-26 03:59 50.23749 -140.65899 32326 ft 485 kts 295°
2026-04-26 04:00 50.27002 -140.75058 32340 ft 484 kts 295°
2026-04-26 04:00 50.30259 -140.84263 32319 ft 482 kts 295°
2026-04-26 04:01 50.33500 -140.93453 32321 ft 481 kts 295°
2026-04-26 04:01 50.36705 -141.02577 32319 ft 480 kts 295°
2026-04-26 04:02 50.39910 -141.11736 32334 ft 479 kts 296°
2026-04-26 04:02 50.43103 -141.20890 32315 ft 477 kts 296°
2026-04-26 04:03 50.46255 -141.29956 32315 ft 476 kts 296°
2026-04-26 04:03 50.49414 -141.39076 32315 ft 475 kts 296°
2026-04-26 04:04 50.52562 -141.48203 32332 ft 474 kts 296°
2026-04-26 04:04 50.55698 -141.57323 32304 ft 474 kts 296°
2026-04-26 04:05 50.58821 -141.66437 32319 ft 473 kts 296°
2026-04-26 04:05 50.61412 -141.74026 32317 ft 473 kts 296°
2026-04-26 04:06 50.64524 -141.83170 32303 ft 472 kts 296°
2026-04-26 04:06 50.67616 -141.92291 32304 ft 472 kts 296°
2026-04-26 04:07 50.70700 -142.01417 32305 ft 470 kts 296°
2026-04-26 04:07 50.73769 -142.10530 32306 ft 469 kts 296°
2026-04-26 04:08 50.76818 -142.19621 32306 ft 469 kts 296°
2026-04-26 04:08 50.79862 -142.28732 32299 ft 467 kts 297°
2026-04-26 04:09 50.82882 -142.37799 32297 ft 464 kts 296°
2026-04-26 04:09 50.85860 -142.46772 32292 ft 462 kts 296°
2026-04-26 04:10 50.88838 -142.55781 32303 ft 461 kts 296°
2026-04-26 04:10 50.91806 -142.64794 32319 ft 460 kts 297°
2026-04-26 04:11 50.94739 -142.73728 32299 ft 460 kts 297°
2026-04-26 04:11 50.97687 -142.82738 32306 ft 459 kts 297°
2026-04-26 04:12 51.00624 -142.91754 32296 ft 459 kts 297°
2026-04-26 04:12 51.03535 -143.00717 32298 ft 459 kts 297°
2026-04-26 04:13 51.06467 -143.09787 32290 ft 458 kts 297°
2026-04-26 04:13 51.09372 -143.18794 32288 ft 456 kts 297°
2026-04-26 04:14 51.12238 -143.27716 32296 ft 455 kts 297°
2026-04-26 04:14 51.15106 -143.36677 32294 ft 454 kts 297°
2026-04-26 04:15 51.17959 -143.45631 32293 ft 452 kts 298°
2026-04-26 04:15 51.20800 -143.54570 32284 ft 450 kts 298°
2026-04-26 04:16 51.23618 -143.63470 32296 ft 448 kts 298°
2026-04-26 04:16 51.26416 -143.72350 32300 ft 447 kts 298°
2026-04-26 04:17 51.29200 -143.81207 32299 ft 444 kts 298°
2026-04-26 04:17 51.31968 -143.90040 32292 ft 444 kts 298°
2026-04-26 04:18 51.34727 -143.98882 32293 ft 444 kts 298°
2026-04-26 04:18 51.37465 -144.07688 32298 ft 444 kts 298°
2026-04-26 04:19 51.40216 -144.16568 32295 ft 445 kts 298°
2026-04-26 04:19 51.42953 -144.25442 32285 ft 443 kts 299°
2026-04-26 04:20 51.45667 -144.34271 32280 ft 440 kts 299°
2026-04-26 04:20 51.48350 -144.43025 32288 ft 437 kts 299°
2026-04-26 04:21 51.51027 -144.51793 32290 ft 436 kts 299°
2026-04-26 04:21 51.53690 -144.60545 32296 ft 436 kts 299°
2026-04-26 04:22 51.56322 -144.69237 32291 ft 434 kts 300°
2026-04-26 04:22 51.58963 -144.77976 32294 ft 433 kts 300°
2026-04-26 04:23 51.61586 -144.86688 32295 ft 432 kts 300°
2026-04-26 04:23 51.64203 -144.95416 32296 ft 432 kts 300°
2026-04-26 04:24 51.66793 -145.04088 32288 ft 431 kts 300°
2026-04-26 04:24 51.69380 -145.12783 32294 ft 429 kts 300°
2026-04-26 04:25 51.71952 -145.21451 32299 ft 428 kts 300°
2026-04-26 04:25 51.74506 -145.30091 32301 ft 427 kts 300°
2026-04-26 04:26 51.77054 -145.38744 32302 ft 426 kts 300°
2026-04-26 04:26 51.79597 -145.47409 32305 ft 425 kts 300°
2026-04-26 04:27 51.82113 -145.56019 32304 ft 425 kts 300°
2026-04-26 04:27 51.84625 -145.64642 32307 ft 424 kts 300°
2026-04-26 04:28 51.87137 -145.73298 32307 ft 424 kts 299°
2026-04-26 04:28 51.89632 -145.81926 32307 ft 424 kts 299°
2026-04-26 04:29 51.92126 -145.90581 32313 ft 423 kts 299°
2026-04-26 04:29 51.94597 -145.99188 32308 ft 423 kts 299°
2026-04-26 04:30 51.97072 -146.07841 32311 ft 422 kts 299°
2026-04-26 04:30 51.99536 -146.16488 32313 ft 422 kts 299°
2026-04-26 04:31 52.01991 -146.25134 32314 ft 422 kts 299°
2026-04-26 04:31 52.04443 -146.33801 32308 ft 421 kts 298°
2026-04-26 04:32 52.06881 -146.42456 32309 ft 420 kts 298°
2026-04-26 04:32 52.09309 -146.51103 32309 ft 420 kts 298°
2026-04-26 04:33 52.11716 -146.59704 32310 ft 420 kts 298°
2026-04-26 04:33 52.14128 -146.68356 32310 ft 420 kts 298°
2026-04-26 04:34 52.16530 -146.77008 32309 ft 419 kts 298°
2026-04-26 04:34 52.18921 -146.85649 32308 ft 418 kts 298°
2026-04-26 04:35 52.21301 -146.94285 32312 ft 417 kts 298°
2026-04-26 04:35 52.23676 -147.02932 32313 ft 417 kts 298°
2026-04-26 04:36 52.26044 -147.11586 32310 ft 417 kts 298°
2026-04-26 04:36 52.28385 -147.20174 32308 ft 417 kts 298°
2026-04-26 04:37 52.30735 -147.28829 32308 ft 416 kts 298°
2026-04-26 04:37 52.33073 -147.37471 32306 ft 416 kts 298°
2026-04-26 04:38 52.35413 -147.46151 32307 ft 416 kts 298°
2026-04-26 04:38 52.37743 -147.54832 32308 ft 416 kts 297°
2026-04-26 04:39 52.40051 -147.63459 32317 ft 416 kts 297°
2026-04-26 04:39 52.42366 -147.72144 32319 ft 415 kts 297°
2026-04-26 04:40 52.44669 -147.80822 32307 ft 415 kts 297°
2026-04-26 04:40 52.46971 -147.89524 32307 ft 415 kts 297°
2026-04-26 04:41 52.49263 -147.98226 32299 ft 415 kts 297°
2026-04-26 04:41 52.51536 -148.06885 32298 ft 415 kts 297°
2026-04-26 04:42 52.53819 -148.15615 32300 ft 416 kts 297°
2026-04-26 04:42 52.56096 -148.24359 32312 ft 416 kts 297°
2026-04-26 04:43 52.58353 -148.33058 32312 ft 416 kts 297°
2026-04-26 04:43 52.60618 -148.41825 32314 ft 416 kts 297°
2026-04-26 04:44 52.62872 -148.50577 32294 ft 413 kts 296°
2026-04-26 04:44 52.65107 -148.59293 32301 ft 412 kts 296°
2026-04-26 04:45 52.67329 -148.67993 32301 ft 412 kts 296°
2026-04-26 04:45 52.69528 -148.76635 32301 ft 411 kts 296°
2026-04-26 04:46 52.71747 -148.85390 32295 ft 411 kts 296°
2026-04-26 04:46 52.73932 -148.94038 32301 ft 411 kts 295°
2026-04-26 04:47 52.76126 -149.02765 32292 ft 411 kts 295°
2026-04-26 04:47 52.78314 -149.11498 32294 ft 411 kts 295°
2026-04-26 04:48 52.81570 -149.24563 32294 ft 411 kts 295°
2026-04-26 04:48 52.83743 -149.33320 32281 ft 412 kts 295°
2026-04-26 04:49 52.85909 -149.42087 32291 ft 411 kts 295°
2026-04-26 04:49 52.88064 -149.50848 32290 ft 411 kts 295°
2026-04-26 04:50 52.89852 -149.58141 32291 ft 411 kts 295°
2026-04-26 04:50 52.92357 -149.68395 32290 ft 410 kts 295°
2026-04-26 04:51 52.94479 -149.77127 32286 ft 410 kts 295°
2026-04-26 04:51 52.96604 -149.85899 32287 ft 409 kts 294°
2026-04-26 04:52 52.98718 -149.94660 32288 ft 409 kts 294°
2026-04-26 04:52 53.00475 -150.01945 32285 ft 408 kts 295°
2026-04-26 04:53 53.02656 -150.10638 32277 ft 407 kts 295°
2026-04-26 04:53 53.04857 -150.19333 32277 ft 407 kts 295°
2026-04-26 04:54 53.07026 -150.27963 32278 ft 407 kts 295°
2026-04-26 04:54 53.09199 -150.36666 32274 ft 406 kts 295°
2026-04-26 04:55 53.11360 -150.45365 32269 ft 406 kts 295°
2026-04-26 04:55 53.13513 -150.54070 32273 ft 406 kts 294°
2026-04-26 04:56 53.15642 -150.62714 32267 ft 406 kts 294°
2026-04-26 04:56 53.17782 -150.71433 32262 ft 406 kts 294°
2026-04-26 04:57 53.19910 -150.80143 32261 ft 405 kts 294°
2026-04-26 04:57 53.22035 -150.88875 32261 ft 405 kts 294°
2026-04-26 04:58 53.24139 -150.97555 32253 ft 405 kts 294°
2026-04-26 04:58 53.26249 -151.06293 32252 ft 405 kts 294°
2026-04-26 04:59 53.28355 -151.15046 32249 ft 405 kts 293°
2026-04-26 04:59 53.30438 -151.23741 32251 ft 405 kts 293°
2026-04-26 05:00 53.32518 -151.32502 32258 ft 405 kts 292°
2026-04-26 05:00 53.34610 -151.41292 32212 ft 408 kts 292°
2026-04-26 05:01 53.36711 -151.50144 32251 ft 410 kts 292°
2026-04-26 05:01 53.38803 -151.59014 32226 ft 410 kts 292°
2026-04-26 05:02 53.40888 -151.67895 32230 ft 409 kts 291°
2026-04-26 05:02 53.42964 -151.76782 32223 ft 409 kts 291°
2026-04-26 05:03 53.45031 -151.85663 32243 ft 408 kts 291°
2026-04-26 05:03 53.47091 -151.94553 32235 ft 408 kts 291°
2026-04-26 05:04 53.49127 -152.03372 32234 ft 407 kts 291°
2026-04-26 05:04 53.51171 -152.12260 32222 ft 408 kts 291°
2026-04-26 05:05 53.53208 -152.21159 32216 ft 408 kts 290°
2026-04-26 05:05 53.55238 -152.30068 32228 ft 408 kts 290°
2026-04-26 05:06 53.57266 -152.39004 32209 ft 408 kts 290°
2026-04-26 05:06 53.59279 -152.47909 32207 ft 409 kts 290°
2026-04-26 05:07 53.61296 -152.56871 32203 ft 409 kts 290°
2026-04-26 05:07 53.63310 -152.65856 32199 ft 409 kts 290°
2026-04-26 05:08 53.65315 -152.74840 32215 ft 409 kts 290°
2026-04-26 05:08 53.67300 -152.83779 32199 ft 409 kts 290°
2026-04-26 05:09 53.69294 -152.92788 32194 ft 409 kts 290°
2026-04-26 05:09 53.71278 -153.01797 32196 ft 410 kts 289°
2026-04-26 05:10 53.73261 -153.10837 32199 ft 410 kts 289°
2026-04-26 05:10 53.75234 -153.19877 32193 ft 410 kts 289°
2026-04-26 05:11 53.77188 -153.28866 32192 ft 410 kts 289°
2026-04-26 05:11 53.79152 -153.37939 32193 ft 410 kts 289°
2026-04-26 05:12 53.81089 -153.46927 32183 ft 410 kts 289°
2026-04-26 05:12 53.83041 -153.56017 32182 ft 411 kts 288°
2026-04-26 05:13 53.84984 -153.65120 32177 ft 411 kts 288°
2026-04-26 05:13 53.86912 -153.74191 32176 ft 411 kts 288°
2026-04-26 05:14 53.88846 -153.83325 32173 ft 411 kts 288°
2026-04-26 05:14 53.90772 -153.92468 32170 ft 412 kts 288°
2026-04-26 05:15 53.92691 -154.01618 32169 ft 412 kts 287°
2026-04-26 05:15 53.94606 -154.10789 32164 ft 412 kts 287°
2026-04-26 05:16 53.96514 -154.19964 32157 ft 412 kts 287°
2026-04-26 05:16 53.98419 -154.29171 32158 ft 413 kts 287°
2026-04-26 05:17 54.00316 -154.38382 32151 ft 413 kts 287°
2026-04-26 05:17 54.02206 -154.47603 32158 ft 413 kts 287°
2026-04-26 05:18 54.04082 -154.56798 32144 ft 413 kts 287°
2026-04-26 05:18 54.05961 -154.66049 32145 ft 413 kts 287°
2026-04-26 05:19 54.07831 -154.75297 32135 ft 413 kts 287°
2026-04-26 05:19 54.09647 -154.84326 32137 ft 413 kts 286°
2026-04-26 05:20 54.11506 -154.93602 32144 ft 413 kts 286°
2026-04-26 05:20 54.13360 -155.02901 32133 ft 414 kts 286°
2026-04-26 05:21 54.15193 -155.12142 32121 ft 414 kts 285°
2026-04-26 05:21 54.17032 -155.21458 32123 ft 414 kts 285°
2026-04-26 05:22 54.18866 -155.30793 32122 ft 414 kts 285°
2026-04-26 05:22 54.20694 -155.40137 32115 ft 414 kts 285°
2026-04-26 05:23 54.22504 -155.49439 32118 ft 415 kts 285°
2026-04-26 05:23 54.24316 -155.58800 32106 ft 415 kts 285°
2026-04-26 05:24 54.26129 -155.68203 32106 ft 415 kts 285°
2026-04-26 05:24 54.27929 -155.77593 32098 ft 415 kts 285°
2026-04-26 05:25 54.29724 -155.86994 32101 ft 415 kts 284°
2026-04-26 05:25 54.31501 -155.96345 32096 ft 416 kts 284°
2026-04-26 05:26 54.33283 -156.05781 32087 ft 416 kts 284°
2026-04-26 05:26 54.35057 -156.15224 32083 ft 416 kts 284°
2026-04-26 05:27 54.36824 -156.24667 32079 ft 416 kts 284°
2026-04-26 05:27 54.38586 -156.34136 32071 ft 416 kts 284°
2026-04-26 05:28 54.40337 -156.43589 32078 ft 416 kts 283°
2026-04-26 05:28 54.42086 -156.53088 32060 ft 417 kts 283°
2026-04-26 05:29 54.43828 -156.62592 32059 ft 418 kts 283°
2026-04-26 05:29 54.45558 -156.72078 32053 ft 418 kts 283°
2026-04-26 05:30 54.47291 -156.81625 32055 ft 418 kts 283°
2026-04-26 05:30 54.49016 -156.91181 32071 ft 418 kts 282°
2026-04-26 05:31 54.50726 -157.00705 32052 ft 419 kts 282°
2026-04-26 05:31 54.52439 -157.10304 32035 ft 419 kts 282°
2026-04-26 05:32 54.54144 -157.19901 32034 ft 419 kts 282°
2026-04-26 05:32 54.55843 -157.29513 32035 ft 419 kts 282°
2026-04-26 05:33 54.57536 -157.39141 32025 ft 419 kts 282°
2026-04-26 05:33 54.59207 -157.48701 32025 ft 419 kts 282°
2026-04-26 05:34 54.60882 -157.58331 32014 ft 419 kts 282°
2026-04-26 05:34 54.62548 -157.67962 32012 ft 419 kts 282°
2026-04-26 05:35 54.64207 -157.77604 32014 ft 419 kts 282°
2026-04-26 05:35 54.65858 -157.87254 32013 ft 419 kts 281°
2026-04-26 05:36 54.67502 -157.96915 32008 ft 419 kts 281°
2026-04-26 05:36 54.69129 -158.06531 32004 ft 419 kts 281°
2026-04-26 05:37 54.70758 -158.16207 31996 ft 420 kts 281°
2026-04-26 05:37 54.72381 -158.25903 31993 ft 419 kts 281°
2026-04-26 05:38 54.73996 -158.35607 31983 ft 419 kts 281°
2026-04-26 05:38 54.75605 -158.45321 31990 ft 420 kts 280°
2026-04-26 05:39 54.77196 -158.54993 31974 ft 420 kts 279°
2026-04-26 05:39 54.78787 -158.64721 31972 ft 420 kts 279°
2026-04-26 05:40 54.80375 -158.74473 31963 ft 420 kts 279°
2026-04-26 05:40 54.81687 -158.82578 31961 ft 420 kts 279°
2026-04-26 05:41 54.83260 -158.92344 31962 ft 420 kts 279°
2026-04-26 05:41 54.84824 -159.02123 31959 ft 421 kts 278°
2026-04-26 05:42 54.86385 -159.11927 31953 ft 421 kts 278°
2026-04-26 05:42 54.87939 -159.21742 31943 ft 422 kts 278°
2026-04-26 05:43 54.89480 -159.31540 31949 ft 422 kts 278°
2026-04-26 05:43 54.91023 -159.41405 31927 ft 422 kts 278°
2026-04-26 05:44 54.92559 -159.51277 31932 ft 423 kts 278°
2026-04-26 05:44 54.94089 -159.61177 31917 ft 424 kts 277°
2026-04-26 05:45 54.95602 -159.71031 31915 ft 424 kts 277°
2026-04-26 05:45 54.97119 -159.80964 31904 ft 424 kts 277°
2026-04-26 05:46 54.98628 -159.90895 31904 ft 424 kts 277°
2026-04-26 05:46 54.99959 -160.00871 31896 ft 420 kts 272°
2026-04-26 05:47 55.00454 -160.10912 31901 ft 415 kts 267°
2026-04-26 05:47 55.00831 -160.20923 31889 ft 417 kts 268°
2026-04-26 05:48 55.01223 -160.31008 31873 ft 417 kts 268°
2026-04-26 05:48 55.01611 -160.41113 31872 ft 418 kts 268°
2026-04-26 05:49 55.02175 -160.56289 31885 ft 419 kts 267°
2026-04-26 05:50 55.02540 -160.66432 31864 ft 419 kts 267°
2026-04-26 05:50 55.02897 -160.76581 31851 ft 419 kts 267°
2026-04-26 05:51 55.03244 -160.86644 31824 ft 419 kts 266°
2026-04-26 05:51 55.03583 -160.96772 31820 ft 418 kts 266°
2026-04-26 05:52 55.03914 -161.06892 31811 ft 418 kts 266°
2026-04-26 05:52 55.04238 -161.17038 31802 ft 419 kts 266°
2026-04-26 05:53 55.04551 -161.27183 31799 ft 419 kts 266°
2026-04-26 05:53 55.04858 -161.37343 31777 ft 419 kts 266°
2026-04-26 05:54 55.05156 -161.47487 31775 ft 419 kts 266°
2026-04-26 05:54 55.05446 -161.57649 31770 ft 419 kts 265°
2026-04-26 05:55 55.05727 -161.67792 31802 ft 419 kts 265°
2026-04-26 05:55 55.06000 -161.77904 31776 ft 420 kts 264°
2026-04-26 05:56 55.06262 -161.88084 31746 ft 420 kts 264°
2026-04-26 05:56 55.06518 -161.98253 31754 ft 419 kts 264°
2026-04-26 05:57 55.06765 -162.08409 31737 ft 418 kts 264°
2026-04-26 05:57 55.07005 -162.18567 31740 ft 418 kts 264°
2026-04-26 05:57 55.07120 -162.23627 31849 ft 418 kts 263°
2026-04-26 05:58 55.07234 -162.28708 31814 ft 418 kts 263°
2026-04-26 05:58 55.07455 -162.38855 31799 ft 418 kts 263°
2026-04-26 05:59 55.07667 -162.49001 31787 ft 419 kts 263°
2026-04-26 05:59 55.07871 -162.59094 31702 ft 419 kts 263°
2026-04-26 06:00 55.08069 -162.69277 31703 ft 420 kts 263°
2026-04-26 06:00 55.08258 -162.79479 31713 ft 421 kts 262°
2026-04-26 06:01 55.08438 -162.89694 31702 ft 422 kts 261°
2026-04-26 06:01 55.08607 -162.99973 31673 ft 421 kts 262°
2026-04-26 06:02 55.08776 -163.10076 31624 ft 417 kts 261°
2026-04-26 06:02 55.08931 -163.20149 31634 ft 415 kts 261°
2026-04-26 06:03 55.09071 -163.30204 31638 ft 415 kts 261°
2026-04-26 06:03 55.09203 -163.40369 31618 ft 424 kts 261°
2026-04-26 06:04 55.09329 -163.50751 31601 ft 428 kts 261°
2026-04-26 06:04 55.09456 -163.61137 31548 ft 427 kts 261°
2026-04-26 06:05 55.09574 -163.71500 31553 ft 426 kts 261°
2026-04-26 06:05 55.09680 -163.81855 31510 ft 426 kts 261°
2026-04-26 06:06 55.09776 -163.92171 31564 ft 425 kts 260°
2026-04-26 06:06 55.09860 -164.02563 31496 ft 429 kts 260°
2026-04-26 06:07 55.09936 -164.12937 31485 ft 431 kts 260°
2026-04-26 06:07 55.10007 -164.23424 31482 ft 433 kts 260°
2026-04-26 06:08 55.10070 -164.33974 31463 ft 434 kts 260°
2026-04-26 06:08 55.10124 -164.44523 31457 ft 434 kts 260°
2026-04-26 06:09 55.10168 -164.55073 31447 ft 436 kts 259°
2026-04-26 06:09 55.10200 -164.65673 31446 ft 438 kts 259°
2026-04-26 06:10 55.10225 -164.76245 31422 ft 439 kts 259°
2026-04-26 06:10 55.10242 -164.86928 31432 ft 440 kts 259°
2026-04-26 06:11 55.10249 -164.97642 31412 ft 442 kts 259°
2026-04-26 06:11 55.10246 -165.08391 31455 ft 444 kts 258°
2026-04-26 06:12 55.10232 -165.19203 31401 ft 446 kts 258°
2026-04-26 06:12 55.10212 -165.30054 31376 ft 446 kts 258°
2026-04-26 06:13 55.10182 -165.40903 31358 ft 446 kts 258°
2026-04-26 06:13 55.10142 -165.51672 31360 ft 446 kts 258°
2026-04-26 06:14 55.10093 -165.62493 31414 ft 445 kts 258°
2026-04-26 06:14 55.10030 -165.73365 31344 ft 448 kts 258°
2026-04-26 06:15 55.09959 -165.84233 31320 ft 448 kts 258°
2026-04-26 06:15 55.09880 -165.95053 31325 ft 448 kts 258°
2026-04-26 06:16 55.09791 -166.05957 31326 ft 449 kts 258°
2026-04-26 06:16 55.09692 -166.16855 31327 ft 451 kts 258°
2026-04-26 06:16 55.09635 -166.22344 31505 ft 455 kts 258°
2026-04-26 06:17 55.09576 -166.27882 31764 ft 455 kts 258°
2026-04-26 06:17 55.09520 -166.33381 32188 ft 451 kts 258°
2026-04-26 06:17 55.09465 -166.38830 32655 ft 447 kts 258°
2026-04-26 06:17 55.09406 -166.44244 33051 ft 445 kts 258°
2026-04-26 06:18 55.09342 -166.49640 33212 ft 446 kts 258°
2026-04-26 06:18 55.09198 -166.60503 33271 ft 447 kts 258°
2026-04-26 06:19 55.09052 -166.71323 33263 ft 444 kts 258°
2026-04-26 06:19 55.08893 -166.82124 33256 ft 449 kts 258°
2026-04-26 06:20 55.08717 -166.93058 33255 ft 456 kts 258°
2026-04-26 06:20 55.08539 -167.04163 33229 ft 458 kts 258°
2026-04-26 06:21 55.08351 -167.15286 33222 ft 458 kts 258°
2026-04-26 06:21 55.08153 -167.26395 33202 ft 457 kts 258°
2026-04-26 06:22 55.07942 -167.37506 33227 ft 459 kts 258°
2026-04-26 06:22 55.07717 -167.48677 33197 ft 461 kts 258°
2026-04-26 06:23 55.07484 -167.59831 33195 ft 463 kts 258°
2026-04-26 06:23 55.07240 -167.71083 33177 ft 465 kts 258°
2026-04-26 06:24 55.06985 -167.82366 33173 ft 465 kts 258°
2026-04-26 06:24 55.06718 -167.93661 33175 ft 468 kts 258°
2026-04-26 06:25 55.06437 -168.05036 33168 ft 470 kts 258°
2026-04-26 06:25 55.06147 -168.16424 33153 ft 472 kts 258°
2026-04-26 06:26 55.05845 -168.27891 33149 ft 473 kts 258°
2026-04-26 06:26 55.05536 -168.39247 33134 ft 473 kts 258°
2026-04-26 06:27 55.05212 -168.50714 33135 ft 472 kts 258°
2026-04-26 06:27 55.04878 -168.62146 33121 ft 471 kts 258°
2026-04-26 06:28 55.04534 -168.73557 33119 ft 471 kts 258°
2026-04-26 06:28 55.04240 -168.83035 33120 ft 470 kts 258°
2026-04-26 06:29 55.03877 -168.94411 33121 ft 469 kts 258°
2026-04-26 06:29 55.03502 -169.05789 33123 ft 472 kts 258°
2026-04-26 06:30 55.03113 -169.17234 33110 ft 474 kts 258°
2026-04-26 06:30 55.02717 -169.28668 33098 ft 475 kts 258°
2026-04-26 06:31 55.02307 -169.40187 33093 ft 476 kts 258°
2026-04-26 06:31 55.01885 -169.51722 33072 ft 476 kts 258°
2026-04-26 06:32 55.01452 -169.63253 33105 ft 478 kts 258°
2026-04-26 06:32 55.01005 -169.74827 33063 ft 479 kts 258°
2026-04-26 06:33 55.00549 -169.86420 33054 ft 480 kts 258°
2026-04-26 06:33 55.00082 -169.98019 33038 ft 480 kts 258°
2026-04-26 06:34 54.99514 -170.09580 33053 ft 478 kts 256°
2026-04-26 06:34 54.98819 -170.21019 33039 ft 480 kts 256°
2026-04-26 06:35 54.98103 -170.32581 33027 ft 481 kts 256°
2026-04-26 06:35 54.97394 -170.44173 33008 ft 482 kts 256°
2026-04-26 06:36 54.96686 -170.55766 33011 ft 482 kts 256°
2026-04-26 06:36 54.95965 -170.67403 32992 ft 482 kts 256°
2026-04-26 06:37 54.95236 -170.78949 32994 ft 484 kts 256°
2026-04-26 06:37 54.94490 -170.90593 32984 ft 485 kts 256°
2026-04-26 06:38 54.93732 -171.02257 32974 ft 485 kts 256°
2026-04-26 06:38 54.92962 -171.13913 32963 ft 485 kts 256°
2026-04-26 06:39 54.92182 -171.25568 32954 ft 485 kts 256°
2026-04-26 06:39 54.91393 -171.37157 32944 ft 486 kts 257°
2026-04-26 06:40 54.90587 -171.48835 32935 ft 487 kts 257°
2026-04-26 06:40 54.89771 -171.60498 32923 ft 487 kts 256°
2026-04-26 06:41 54.88942 -171.72188 32908 ft 487 kts 256°
2026-04-26 06:41 54.88100 -171.83893 32933 ft 488 kts 257°
2026-04-26 06:42 54.87249 -171.95546 32886 ft 489 kts 257°
2026-04-26 06:42 54.86382 -172.07274 32877 ft 490 kts 257°
2026-04-26 06:43 54.85502 -172.19015 32861 ft 491 kts 257°
2026-04-26 06:43 54.84609 -172.30783 32859 ft 491 kts 256°
2026-04-26 06:44 54.83704 -172.42541 32867 ft 492 kts 257°
2026-04-26 06:44 54.82792 -172.54247 32840 ft 493 kts 257°
2026-04-26 06:45 54.81861 -172.66046 32821 ft 493 kts 257°
2026-04-26 06:45 54.80920 -172.77830 32813 ft 493 kts 257°
2026-04-26 06:46 54.79967 -172.89603 32811 ft 493 kts 257°
2026-04-26 06:46 54.79002 -173.01369 32799 ft 495 kts 257°
2026-04-26 06:47 54.78022 -173.13185 32790 ft 495 kts 257°
2026-04-26 06:47 54.77031 -173.24985 32780 ft 495 kts 257°
2026-04-26 06:48 54.76028 -173.36792 32751 ft 495 kts 257°
2026-04-26 06:48 54.75014 -173.48591 32752 ft 495 kts 257°
2026-04-26 06:49 54.73986 -173.60398 32742 ft 497 kts 257°
2026-04-26 06:49 54.72951 -173.72153 32737 ft 497 kts 257°
2026-04-26 06:50 54.71896 -173.84006 32730 ft 498 kts 257°
2026-04-26 06:50 54.70832 -173.95825 32719 ft 498 kts 257°
2026-04-26 06:51 54.69754 -174.07658 32706 ft 498 kts 257°
2026-04-26 06:51 54.68115 -174.25405 32691 ft 498 kts 257°
2026-04-26 06:52 54.67010 -174.37206 32691 ft 498 kts 256°
2026-04-26 06:52 54.65893 -174.49011 32691 ft 497 kts 256°
2026-04-26 06:53 54.64773 -174.60720 32719 ft 497 kts 256°
2026-04-26 06:53 54.63633 -174.72505 32689 ft 498 kts 256°
2026-04-26 06:54 54.62480 -174.84294 32670 ft 498 kts 256°
2026-04-26 06:54 54.61317 -174.96075 32667 ft 498 kts 256°
2026-04-26 06:55 54.60143 -175.07842 32660 ft 498 kts 257°
2026-04-26 06:55 54.58956 -175.19614 32676 ft 498 kts 257°
2026-04-26 06:56 54.57759 -175.31368 32666 ft 498 kts 256°
2026-04-26 06:56 54.56556 -175.43069 32660 ft 499 kts 256°
2026-04-26 06:57 54.55332 -175.54843 32643 ft 499 kts 256°
2026-04-26 06:57 54.54098 -175.66609 32644 ft 499 kts 256°
2026-04-26 06:58 54.52851 -175.78373 32656 ft 500 kts 257°
2026-04-26 06:58 54.51591 -175.90150 32657 ft 500 kts 256°
2026-04-26 06:59 54.50320 -176.01918 32649 ft 501 kts 256°
2026-04-26 06:59 54.49035 -176.13695 32645 ft 501 kts 256°
2026-04-26 07:00 54.47737 -176.25481 32652 ft 501 kts 256°
2026-04-26 07:00 54.46428 -176.37260 32639 ft 501 kts 257°
2026-04-26 07:01 54.45109 -176.49019 32645 ft 501 kts 256°
2026-04-26 07:01 54.43789 -176.60673 32652 ft 500 kts 256°
2026-04-26 07:02 54.42452 -176.72377 32651 ft 499 kts 256°
2026-04-26 07:02 54.41105 -176.84054 32674 ft 498 kts 257°
2026-04-26 07:03 54.39750 -176.95702 32650 ft 497 kts 257°
2026-04-26 07:03 54.38384 -177.07337 32653 ft 496 kts 256°
2026-04-26 07:04 54.37011 -177.18927 32654 ft 496 kts 256°
2026-04-26 07:04 54.35626 -177.30518 32662 ft 496 kts 256°
2026-04-26 07:05 54.34230 -177.42093 32654 ft 497 kts 256°
2026-04-26 07:05 54.32817 -177.53719 32680 ft 499 kts 256°
2026-04-26 07:06 54.31388 -177.65371 32668 ft 501 kts 256°
2026-04-26 07:06 54.29940 -177.77072 32686 ft 502 kts 256°
2026-04-26 07:07 54.28486 -177.88756 32704 ft 501 kts 256°
2026-04-26 07:07 54.27027 -178.00350 32705 ft 503 kts 256°
2026-04-26 07:08 54.25542 -178.12057 32723 ft 503 kts 256°
2026-04-26 07:08 54.24041 -178.23791 32717 ft 504 kts 256°
2026-04-26 07:09 54.22536 -178.35471 32749 ft 503 kts 255°
2026-04-26 07:09 54.21021 -178.47147 32743 ft 503 kts 255°
2026-04-26 07:11 54.17170 -178.76315 32817 ft 504 kts 254°
2026-04-26 07:11 54.15608 -178.87999 32807 ft 506 kts 255°
2026-04-26 07:12 54.14033 -178.99692 32850 ft 505 kts 255°
2026-04-26 07:12 54.12455 -179.11325 32828 ft 502 kts 255°
2026-04-26 07:13 54.10878 -179.22842 32865 ft 501 kts 255°
2026-04-26 07:13 54.09279 -179.34421 32863 ft 502 kts 255°
2026-04-26 07:14 54.07685 -179.45892 32898 ft 504 kts 256°
2026-04-26 07:14 54.06058 -179.57501 32903 ft 504 kts 255°
2026-04-26 07:15 54.04421 -179.69081 32932 ft 503 kts 255°
2026-04-26 07:15 54.02786 -179.80594 32952 ft 502 kts 255°
2026-04-26 07:16 54.01136 -179.92123 32960 ft 501 kts 254°
2026-04-26 07:16 53.99467 179.96381 32957 ft 500 kts 255°
2026-04-26 07:17 53.98030 179.86850 32965 ft 501 kts 254°
2026-04-26 07:17 53.96271 179.75365 33036 ft 503 kts 254°
2026-04-26 07:18 53.94197 179.61891 33007 ft 504 kts 254°
2026-04-26 07:18 53.92431 179.50446 33042 ft 504 kts 254°
2026-04-26 07:19 53.90940 179.40833 33033 ft 503 kts 253°
2026-04-26 07:19 53.89152 179.29409 33073 ft 500 kts 254°
2026-04-26 07:20 53.87361 179.18046 33080 ft 497 kts 254°
2026-04-26 07:20 53.85575 179.06769 33101 ft 496 kts 253°
2026-04-26 07:21 53.83781 178.95535 33103 ft 496 kts 253°
2026-04-26 07:21 53.81964 178.84234 33136 ft 499 kts 254°
2026-04-26 07:22 53.80125 178.72866 33154 ft 500 kts 253°
2026-04-26 07:22 53.78284 178.61563 33150 ft 499 kts 253°
2026-04-26 07:23 53.76437 178.50291 33182 ft 499 kts 253°
2026-04-26 07:23 53.74571 178.38990 33191 ft 498 kts 253°
2026-04-26 07:24 53.72701 178.27731 33204 ft 497 kts 253°
2026-04-26 07:24 53.70827 178.16524 33205 ft 494 kts 253°
2026-04-26 07:25 53.68971 178.05490 33221 ft 492 kts 253°
2026-04-26 07:25 53.67095 177.94413 33229 ft 490 kts 253°
2026-04-26 07:26 53.65206 177.83332 33260 ft 490 kts 253°
2026-04-26 07:26 53.63318 177.72325 33253 ft 490 kts 253°
2026-04-26 07:27 53.61412 177.61282 33276 ft 490 kts 253°
2026-04-26 07:27 53.59498 177.50254 33285 ft 490 kts 252°
2026-04-26 07:28 53.57576 177.39252 33294 ft 490 kts 252°
2026-04-26 07:28 53.55649 177.28293 33308 ft 491 kts 253°
2026-04-26 07:29 53.53700 177.17274 33311 ft 492 kts 252°
2026-04-26 07:29 53.51736 177.06242 33328 ft 491 kts 252°
2026-04-26 07:30 53.49766 176.95233 33327 ft 492 kts 252°
2026-04-26 07:30 53.47786 176.84240 33346 ft 491 kts 252°
2026-04-26 07:31 53.45799 176.73277 33349 ft 491 kts 252°
2026-04-26 07:31 53.43816 176.62399 33367 ft 490 kts 252°
2026-04-26 07:32 53.41813 176.51478 33364 ft 488 kts 252°
2026-04-26 07:32 53.39808 176.40606 33377 ft 487 kts 252°
2026-04-26 07:33 53.37797 176.29770 33382 ft 487 kts 252°
2026-04-26 07:33 53.35775 176.18937 33398 ft 487 kts 252°
2026-04-26 07:34 53.33743 176.08112 33412 ft 488 kts 251°
2026-04-26 07:34 53.31708 175.97334 33413 ft 488 kts 251°
2026-04-26 07:35 53.29650 175.86493 33432 ft 489 kts 251°
2026-04-26 07:35 53.27578 175.75642 33427 ft 489 kts 251°
2026-04-26 07:36 53.25496 175.64798 33442 ft 490 kts 251°
2026-04-26 07:36 53.23401 175.53961 33443 ft 490 kts 251°
2026-04-26 07:37 53.21299 175.43136 33457 ft 490 kts 251°
2026-04-26 07:37 53.19202 175.32407 33457 ft 489 kts 251°
2026-04-26 07:38 53.17087 175.21633 33471 ft 489 kts 250°
2026-04-26 07:38 53.14960 175.10866 33478 ft 489 kts 251°
2026-04-26 07:39 53.12826 175.00124 33474 ft 488 kts 251°
2026-04-26 07:39 53.10685 174.89408 33494 ft 487 kts 251°
2026-04-26 07:40 53.08548 174.78761 33490 ft 487 kts 251°
2026-04-26 07:40 53.06391 174.68085 33500 ft 486 kts 251°
2026-04-26 07:41 53.04226 174.57413 33503 ft 486 kts 250°
2026-04-26 07:41 53.02053 174.46770 33515 ft 486 kts 250°
2026-04-26 07:42 52.99873 174.36145 33525 ft 486 kts 250°
2026-04-26 07:42 52.97679 174.25516 33529 ft 487 kts 250°
2026-04-26 07:43 52.95487 174.14949 33534 ft 487 kts 250°
2026-04-26 07:43 52.93275 174.04337 33547 ft 487 kts 250°
2026-04-26 07:44 52.91053 173.93733 33546 ft 487 kts 250°
2026-04-26 07:44 52.88823 173.83156 33561 ft 487 kts 250°
2026-04-26 07:45 52.86585 173.72585 33569 ft 486 kts 250°
2026-04-26 07:45 52.84340 173.62045 33570 ft 486 kts 250°
2026-04-26 07:46 52.82100 173.51577 33589 ft 485 kts 250°
2026-04-26 07:46 52.79837 173.41062 33578 ft 484 kts 250°
2026-04-26 07:47 52.77574 173.30597 33591 ft 483 kts 250°
2026-04-26 07:47 52.75305 173.20159 33585 ft 483 kts 250°
2026-04-26 07:48 52.73029 173.09735 33601 ft 482 kts 250°
2026-04-26 07:48 52.70749 172.99352 33606 ft 481 kts 250°
2026-04-26 07:49 52.68453 172.88949 33615 ft 482 kts 250°
2026-04-26 07:49 52.66166 172.78636 33615 ft 483 kts 250°
2026-04-26 07:50 52.62685 172.63039 33627 ft 485 kts 250°
2026-04-26 07:50 52.60348 172.52628 33632 ft 485 kts 250°
2026-04-26 07:51 52.58000 172.42226 33638 ft 484 kts 250°
2026-04-26 07:51 52.55649 172.31859 33637 ft 483 kts 250°
2026-04-26 07:52 52.53294 172.21522 33637 ft 482 kts 250°
2026-04-26 07:52 52.50928 172.11190 33654 ft 482 kts 250°
2026-04-26 07:53 52.48577 172.00978 33660 ft 482 kts 250°
2026-04-26 07:53 52.46195 171.90677 33657 ft 482 kts 250°
2026-04-26 07:54 52.43807 171.80400 33663 ft 482 kts 250°
2026-04-26 07:54 52.41409 171.70127 33663 ft 481 kts 250°